PBD212 ULLI-UUWW

Flight info

Callsign PBD212
Flight time 1h 9m
Altitude 31000
Route N0450F310 SUGIN T873 NIRGI T73 DESUD T834 BEKIP
Aircraft B738/M-VGDW/C

Departure

Time 2026-05-07 12:39
Airport Pulkovo Airport (ULLI)

Arrival

Time 2026-05-07 13:49
Airport Vnukovo International Airport (UUWW)
Time Latitude Longitude Altitude Speed Heading
2026-05-07 12:13 59.80211 30.26886 88 ft 0 kts 107°
2026-05-07 12:30 59.80215 30.26862 87 ft 2 kts 107°
2026-05-07 12:31 59.80220 30.26832 87 ft 2 kts 107°
2026-05-07 12:31 59.80224 30.26803 87 ft 2 kts 95°
2026-05-07 12:31 59.80221 30.26779 87 ft 2 kts 46°
2026-05-07 12:31 59.80209 30.26767 87 ft 2 kts 14°
2026-05-07 12:32 59.80194 30.26758 87 ft 2 kts 16°
2026-05-07 12:32 59.80188 30.26755 87 ft 0 kts 16°
2026-05-07 12:34 59.80194 30.26759 87 ft 4 kts 16°
2026-05-07 12:35 59.80243 30.26787 87 ft 11 kts 16°
2026-05-07 12:35 59.80328 30.26836 87 ft 14 kts 16°
2026-05-07 12:35 59.80405 30.26811 87 ft 13 kts 295°
2026-05-07 12:35 59.80434 30.26617 87 ft 16 kts 286°
2026-05-07 12:36 59.80468 30.26389 87 ft 19 kts 287°
2026-05-07 12:36 59.80507 30.26127 87 ft 21 kts 286°
2026-05-07 12:36 59.80551 30.25836 87 ft 23 kts 286°
2026-05-07 12:36 59.80596 30.25537 87 ft 22 kts 287°
2026-05-07 12:37 59.80642 30.25232 87 ft 24 kts 286°
2026-05-07 12:37 59.80684 30.24942 87 ft 19 kts 287°
2026-05-07 12:37 59.80723 30.24689 87 ft 18 kts 292°
2026-05-07 12:37 59.80835 30.24578 87 ft 20 kts 348°
2026-05-07 12:38 59.80950 30.24586 87 ft 16 kts 50°
2026-05-07 12:38 59.80955 30.24676 87 ft 0 kts 104°
2026-05-07 12:38 59.80953 30.24692 87 ft 7 kts 104°
2026-05-07 12:38 59.80895 30.25098 87 ft 61 kts 107°
2026-05-07 12:39 59.80713 30.26296 88 ft 119 kts 105°
2026-05-07 12:39 59.80432 30.28162 253 ft 153 kts 108°
2026-05-07 12:39 59.80114 30.30214 880 ft 161 kts 107°
2026-05-07 12:39 59.79797 30.32355 1585 ft 158 kts 107°
2026-05-07 12:40 59.79490 30.34424 2319 ft 156 kts 106°
2026-05-07 12:40 59.79179 30.36516 2947 ft 159 kts 105°
2026-05-07 12:40 59.78863 30.38651 3548 ft 167 kts 105°
2026-05-07 12:40 59.78516 30.40992 3928 ft 188 kts 105°
2026-05-07 12:41 59.78125 30.43639 4230 ft 210 kts 105°
2026-05-07 12:41 59.77689 30.46569 4588 ft 231 kts 105°
2026-05-07 12:41 59.77211 30.49740 5076 ft 248 kts 105°
2026-05-07 12:41 59.76706 30.53083 5741 ft 256 kts 106°
2026-05-07 12:42 59.76189 30.56503 6510 ft 261 kts 106°
2026-05-07 12:42 59.75676 30.59984 7263 ft 266 kts 105°
2026-05-07 12:42 59.75164 30.63540 8001 ft 271 kts 105°
2026-05-07 12:42 59.74648 30.67139 8753 ft 274 kts 105°
2026-05-07 12:43 59.74118 30.70809 9434 ft 280 kts 105°
2026-05-07 12:43 59.73574 30.74559 10072 ft 286 kts 106°
2026-05-07 12:43 59.73020 30.78362 10829 ft 288 kts 106°
2026-05-07 12:43 59.72452 30.82267 11284 ft 303 kts 107°
2026-05-07 12:44 59.71850 30.86416 11541 ft 323 kts 108°
2026-05-07 12:44 59.71203 30.90818 11774 ft 343 kts 108°
2026-05-07 12:44 59.70516 30.95449 12123 ft 358 kts 109°
2026-05-07 12:44 59.69799 31.00265 12612 ft 368 kts 109°
2026-05-07 12:45 59.69073 31.05155 13302 ft 373 kts 109°
2026-05-07 12:45 59.68335 31.10109 13989 ft 377 kts 109°
2026-05-07 12:45 59.67587 31.15121 14654 ft 382 kts 110°
2026-05-07 12:45 59.66827 31.20202 15315 ft 388 kts 110°
2026-05-07 12:46 59.66078 31.25365 15953 ft 394 kts 109°
2026-05-07 12:46 59.65350 31.30625 16581 ft 399 kts 110°
2026-05-07 12:46 59.64589 31.35937 17199 ft 404 kts 110°
2026-05-07 12:46 59.63807 31.41288 17821 ft 408 kts 111°
2026-05-07 12:47 59.63013 31.46642 18405 ft 413 kts 111°
2026-05-07 12:47 59.62209 31.52124 18976 ft 418 kts 111°
2026-05-07 12:47 59.61426 31.57685 19519 ft 424 kts 111°
2026-05-07 12:47 59.60595 31.63294 20079 ft 428 kts 112°
2026-05-07 12:48 59.59732 31.68958 20603 ft 432 kts 112°
2026-05-07 12:48 59.58853 31.74666 21114 ft 437 kts 112°
2026-05-07 12:48 59.57958 31.80439 21634 ft 442 kts 112°
2026-05-07 12:48 59.57053 31.86257 22135 ft 446 kts 112°
2026-05-07 12:49 59.56136 31.92129 22608 ft 451 kts 112°
2026-05-07 12:49 59.55209 31.98063 23076 ft 455 kts 113°
2026-05-07 12:49 59.54230 32.03999 23524 ft 456 kts 117°
2026-05-07 12:49 59.52875 32.09613 23956 ft 452 kts 127°
2026-05-07 12:50 59.51123 32.14699 24418 ft 447 kts 135°
2026-05-07 12:50 59.49094 32.19322 24855 ft 445 kts 141°
2026-05-07 12:50 59.46925 32.23652 25292 ft 445 kts 144°
2026-05-07 12:50 59.44688 32.27858 25718 ft 447 kts 145°
2026-05-07 12:51 59.42437 32.32096 26135 ft 450 kts 145°
2026-05-07 12:51 59.40179 32.36390 26538 ft 453 kts 145°
2026-05-07 12:51 59.37914 32.40718 26933 ft 456 kts 145°
2026-05-07 12:51 59.35636 32.45074 27321 ft 459 kts 145°
2026-05-07 12:52 59.33363 32.49434 27904 ft 456 kts 145°
2026-05-07 12:52 59.31101 32.53770 28396 ft 455 kts 145°
2026-05-07 12:52 59.28840 32.58102 28847 ft 455 kts 145°
2026-05-07 12:52 59.26602 32.62492 29338 ft 455 kts 144°
2026-05-07 12:53 59.24371 32.66852 29803 ft 454 kts 145°
2026-05-07 12:53 59.22125 32.71199 30207 ft 454 kts 146°
2026-05-07 12:53 59.19886 32.75501 30739 ft 451 kts 146°
2026-05-07 12:53 59.17640 32.79799 30986 ft 454 kts 146°
2026-05-07 12:54 59.13128 32.88487 31030 ft 456 kts 145°
2026-05-07 12:54 59.08626 32.97081 31028 ft 451 kts 146°
2026-05-07 12:55 59.04122 33.05549 31017 ft 451 kts 146°
2026-05-07 12:55 58.99597 33.14012 31012 ft 452 kts 146°
2026-05-07 12:56 58.95072 33.22456 31009 ft 451 kts 146°
2026-05-07 12:56 58.90562 33.30895 31006 ft 451 kts 145°
2026-05-07 12:57 58.86027 33.39262 31002 ft 450 kts 146°
2026-05-07 12:57 58.81522 33.47534 30999 ft 450 kts 145°
2026-05-07 12:58 58.76987 33.55837 30996 ft 449 kts 145°
2026-05-07 12:58 58.72455 33.64108 30993 ft 449 kts 145°
2026-05-07 12:59 58.67930 33.72340 30989 ft 447 kts 145°
2026-05-07 12:59 58.63444 33.80644 30986 ft 448 kts 144°
2026-05-07 13:00 58.58948 33.88900 30982 ft 447 kts 144°
2026-05-07 13:00 58.54439 33.97090 30979 ft 446 kts 144°
2026-05-07 13:01 58.49929 34.05233 30975 ft 447 kts 144°
2026-05-07 13:01 58.45405 34.13367 30971 ft 447 kts 144°
2026-05-07 13:02 58.40899 34.21553 30953 ft 446 kts 144°
2026-05-07 13:02 58.36379 34.29634 30935 ft 445 kts 144°
2026-05-07 13:03 58.31844 34.37655 30926 ft 445 kts 144°
2026-05-07 13:03 58.27299 34.45661 30922 ft 445 kts 144°
2026-05-07 13:04 58.22753 34.53653 30919 ft 446 kts 144°
2026-05-07 13:04 58.18202 34.61530 30916 ft 444 kts 147°
2026-05-07 13:05 58.13399 34.69003 30913 ft 444 kts 148°
2026-05-07 13:05 58.08656 34.76365 30911 ft 445 kts 148°
2026-05-07 13:06 58.03853 34.83859 30908 ft 446 kts 148°
2026-05-07 13:06 57.99110 34.91254 30906 ft 445 kts 148°
2026-05-07 13:07 57.94353 34.98651 30903 ft 442 kts 147°
2026-05-07 13:07 57.89648 35.06110 30900 ft 443 kts 146°
2026-05-07 13:08 57.84910 35.13528 30897 ft 444 kts 146°
2026-05-07 13:08 57.80182 35.20967 30895 ft 444 kts 146°
2026-05-07 13:09 57.75413 35.28310 30893 ft 444 kts 147°
2026-05-07 13:09 57.70634 35.35619 30890 ft 443 kts 147°
2026-05-07 13:10 57.65852 35.42910 30888 ft 444 kts 147°
2026-05-07 13:10 57.60916 35.49726 30885 ft 437 kts 156°
2026-05-07 13:11 57.55439 35.54291 30884 ft 428 kts 167°
2026-05-07 13:11 57.49786 35.57627 30881 ft 426 kts 169°
2026-05-07 13:12 57.44124 35.60879 30879 ft 426 kts 169°
2026-05-07 13:12 57.38466 35.64144 30877 ft 426 kts 169°
2026-05-07 13:13 57.32810 35.67468 30874 ft 428 kts 166°
2026-05-07 13:13 57.27396 35.72310 30873 ft 437 kts 154°
2026-05-07 13:14 57.22332 35.78623 30871 ft 440 kts 150°
2026-05-07 13:14 57.17322 35.85104 30869 ft 440 kts 151°
2026-05-07 13:15 57.12303 35.91533 30867 ft 439 kts 151°
2026-05-07 13:15 57.07286 35.97968 30866 ft 440 kts 150°
2026-05-07 13:16 57.02295 36.04460 30863 ft 439 kts 150°
2026-05-07 13:16 56.97264 36.10846 30862 ft 440 kts 150°
2026-05-07 13:17 56.92222 36.17198 30870 ft 440 kts 150°
2026-05-07 13:17 56.87182 36.23530 30882 ft 439 kts 150°
2026-05-07 13:18 56.82184 36.29803 30885 ft 439 kts 150°
2026-05-07 13:18 56.77400 36.36799 30891 ft 443 kts 144°
2026-05-07 13:19 56.72678 36.43967 30891 ft 441 kts 145°
2026-05-07 13:19 56.67927 36.51046 30888 ft 441 kts 145°
2026-05-07 13:20 56.63172 36.58086 30887 ft 441 kts 146°
2026-05-07 13:20 56.58143 36.64259 30885 ft 432 kts 159°
2026-05-07 13:21 56.53456 36.67371 30884 ft 426 kts 169°
2026-05-07 13:21 56.47840 36.69840 30882 ft 412 kts 172°
2026-05-07 13:22 56.42291 36.72194 30602 ft 407 kts 172°
2026-05-07 13:22 56.39544 36.73372 30352 ft 406 kts 172°
2026-05-07 13:22 56.36800 36.74550 30101 ft 404 kts 172°
2026-05-07 13:23 56.34069 36.75722 29850 ft 403 kts 172°
2026-05-07 13:23 56.31369 36.76881 29545 ft 397 kts 172°
2026-05-07 13:23 56.28687 36.78037 29156 ft 394 kts 172°
2026-05-07 13:23 56.26030 36.79182 28758 ft 392 kts 172°
2026-05-07 13:24 56.23389 36.80337 28358 ft 389 kts 171°
2026-05-07 13:24 56.20764 36.81481 27957 ft 387 kts 171°
2026-05-07 13:24 56.18155 36.82607 27555 ft 385 kts 171°
2026-05-07 13:24 56.15562 36.83721 27144 ft 383 kts 172°
2026-05-07 13:25 56.12980 36.84826 26736 ft 380 kts 171°
2026-05-07 13:25 56.10412 36.85923 26333 ft 378 kts 171°
2026-05-07 13:25 56.07858 36.87012 25932 ft 376 kts 172°
2026-05-07 13:25 56.05318 36.88094 25533 ft 374 kts 172°
2026-05-07 13:26 56.02794 36.89167 25138 ft 372 kts 172°
2026-05-07 13:26 56.00286 36.90233 24743 ft 370 kts 171°
2026-05-07 13:26 55.97791 36.91291 24348 ft 367 kts 171°
2026-05-07 13:26 55.95310 36.92344 23957 ft 365 kts 171°
2026-05-07 13:27 55.92832 36.93173 23569 ft 360 kts 176°
2026-05-07 13:27 55.90346 36.93613 23179 ft 357 kts 180°
2026-05-07 13:27 55.87880 36.93911 22790 ft 355 kts 180°
2026-05-07 13:27 55.85427 36.94221 22403 ft 353 kts 180°
2026-05-07 13:28 55.82984 36.94544 22016 ft 351 kts 180°
2026-05-07 13:28 55.80557 36.94872 21630 ft 349 kts 180°
2026-05-07 13:28 55.78144 36.95201 21247 ft 347 kts 180°
2026-05-07 13:28 55.75741 36.95525 20863 ft 345 kts 180°
2026-05-07 13:29 55.73355 36.95859 20485 ft 344 kts 179°
2026-05-07 13:29 55.70980 36.96404 20106 ft 344 kts 175°
2026-05-07 13:29 55.68633 36.97132 19731 ft 342 kts 174°
2026-05-07 13:29 55.66291 36.97842 19356 ft 340 kts 175°
2026-05-07 13:30 55.63994 36.98495 18988 ft 338 kts 175°
2026-05-07 13:30 55.61677 36.99143 18616 ft 336 kts 175°
2026-05-07 13:30 55.59371 36.99680 18248 ft 332 kts 180°
2026-05-07 13:30 55.57080 36.99830 17883 ft 328 kts 184°
2026-05-07 13:31 55.54804 36.99803 17519 ft 326 kts 185°
2026-05-07 13:31 55.52541 36.99770 17158 ft 324 kts 185°
2026-05-07 13:31 55.50292 36.99756 16800 ft 322 kts 185°
2026-05-07 13:31 55.48054 36.99750 16443 ft 321 kts 185°
2026-05-07 13:32 55.45829 36.99748 16086 ft 319 kts 185°
2026-05-07 13:32 55.43618 36.99747 15734 ft 317 kts 184°
2026-05-07 13:32 55.41416 36.99747 15381 ft 316 kts 184°
2026-05-07 13:32 55.39237 36.99611 15029 ft 312 kts 189°
2026-05-07 13:33 55.37086 36.99210 14678 ft 309 kts 192°
2026-05-07 13:33 55.34957 36.98717 14330 ft 307 kts 192°
2026-05-07 13:33 55.32836 36.98275 13982 ft 306 kts 191°
2026-05-07 13:33 55.30722 36.97864 13634 ft 305 kts 191°
2026-05-07 13:34 55.28616 36.97480 13287 ft 305 kts 188°
2026-05-07 13:34 55.24501 36.98214 12613 ft 310 kts 171°
2026-05-07 13:34 55.22304 36.99338 12242 ft 311 kts 167°
2026-05-07 13:35 55.20246 37.00486 11888 ft 309 kts 167°
2026-05-07 13:35 55.18196 37.01578 11600 ft 306 kts 168°
2026-05-07 13:35 55.16168 37.02636 11305 ft 303 kts 168°
2026-05-07 13:35 55.14150 37.03683 10969 ft 302 kts 168°
2026-05-07 13:36 55.12140 37.04724 10623 ft 301 kts 168°
2026-05-07 13:36 55.10163 37.05921 10333 ft 302 kts 158°
2026-05-07 13:36 55.08503 37.08157 10181 ft 304 kts 135°
2026-05-07 13:36 55.07530 37.11382 10072 ft 303 kts 106°
2026-05-07 13:37 55.07565 37.15010 9897 ft 301 kts 76°
2026-05-07 13:37 55.08541 37.18204 9585 ft 299 kts 50°
2026-05-07 13:37 55.10025 37.20711 9308 ft 295 kts 38°
2026-05-07 13:37 55.11631 37.22850 9023 ft 293 kts 34°
2026-05-07 13:38 55.13289 37.24925 8715 ft 293 kts 34°
2026-05-07 13:38 55.14908 37.27078 8401 ft 292 kts 36°
2026-05-07 13:38 55.16505 37.29266 8092 ft 291 kts 36°
2026-05-07 13:38 55.18090 37.31465 7778 ft 291 kts 36°
2026-05-07 13:39 55.19669 37.33673 7466 ft 290 kts 36°
2026-05-07 13:39 55.21337 37.35631 7152 ft 287 kts 25°
2026-05-07 13:39 55.23205 37.36738 6831 ft 281 kts
2026-05-07 13:39 55.25138 37.36907 6527 ft 276 kts 355°
2026-05-07 13:40 55.27056 37.36872 6224 ft 276 kts 356°
2026-05-07 13:40 55.28953 37.36939 6109 ft 267 kts 357°
2026-05-07 13:40 55.30774 37.37022 6034 ft 257 kts 357°
2026-05-07 13:40 55.32530 37.37416 5891 ft 255 kts
2026-05-07 13:41 55.34274 37.38159 5727 ft 260 kts 11°
2026-05-07 13:41 55.36018 37.39034 5549 ft 260 kts 12°
2026-05-07 13:41 55.37754 37.39910 5366 ft 258 kts 12°
2026-05-07 13:41 55.39480 37.40762 5188 ft 257 kts 12°
2026-05-07 13:42 55.41196 37.41596 5005 ft 255 kts 11°
2026-05-07 13:42 55.42913 37.42425 4829 ft 256 kts 11°
2026-05-07 13:42 55.44632 37.43252 4648 ft 256 kts 12°
2026-05-07 13:42 55.46348 37.44083 4467 ft 256 kts 11°
2026-05-07 13:43 55.48060 37.44906 4285 ft 255 kts 11°
2026-05-07 13:43 55.49740 37.45715 4125 ft 251 kts 11°
2026-05-07 13:43 55.51413 37.46535 3959 ft 242 kts 12°
2026-05-07 13:43 55.52989 37.47294 3744 ft 234 kts 11°
2026-05-07 13:44 55.54532 37.48032 3552 ft 225 kts 11°
2026-05-07 13:44 55.56016 37.48751 3360 ft 216 kts 11°
2026-05-07 13:44 55.57421 37.49432 3190 ft 204 kts 11°
2026-05-07 13:44 55.58782 37.49940 3004 ft 195 kts 359°
2026-05-07 13:45 55.60087 37.49676 2853 ft 185 kts 341°
2026-05-07 13:45 55.61308 37.48991 2712 ft 183 kts 335°
2026-05-07 13:45 55.62418 37.48050 2537 ft 170 kts 313°
2026-05-07 13:45 55.62918 37.46362 2442 ft 148 kts 278°
2026-05-07 13:46 55.62948 37.44571 2270 ft 144 kts 262°
2026-05-07 13:46 55.62748 37.42885 2114 ft 137 kts 253°
2026-05-07 13:46 55.62487 37.41266 1985 ft 138 kts 252°
2026-05-07 13:46 55.62170 37.39642 1885 ft 141 kts 249°
2026-05-07 13:47 55.61818 37.38024 1752 ft 141 kts 248°
2026-05-07 13:47 55.61461 37.36421 1582 ft 138 kts 248°
2026-05-07 13:47 55.61118 37.34885 1392 ft 132 kts 248°
2026-05-07 13:47 55.60781 37.33386 1219 ft 131 kts 248°
2026-05-07 13:48 55.60447 37.31896 1059 ft 132 kts 248°
2026-05-07 13:48 55.60104 37.30369 887 ft 134 kts 248°
2026-05-07 13:48 55.59769 37.28878 720 ft 126 kts 248°
2026-05-07 13:48 55.59466 37.27503 695 ft 111 kts 246°
2026-05-07 13:49 55.59256 37.26595 694 ft 49 kts 247°
2026-05-07 13:49 55.59184 37.26268 694 ft 15 kts 264°
2026-05-07 13:49 55.59235 37.26210 694 ft 9 kts 16°
2026-05-07 13:49 55.59308 37.26263 694 ft 15 kts 23°
2026-05-07 13:50 55.59417 37.26354 694 ft 20 kts 40°
2026-05-07 13:50 55.59477 37.26557 694 ft 17 kts 69°
2026-05-07 13:50 55.59521 37.26753 694 ft 17 kts 65°
2026-05-07 13:50 55.59589 37.26917 694 ft 17 kts 43°
2026-05-07 13:51 55.59669 37.27068 694 ft 17 kts 47°
2026-05-07 13:51 55.59747 37.27218 694 ft 17 kts 46°
2026-05-07 13:51 55.59823 37.27354 694 ft 13 kts 45°
2026-05-07 13:51 55.59885 37.27469 694 ft 13 kts 47°
2026-05-07 13:52 55.59930 37.27596 694 ft 12 kts 82°
2026-05-07 13:52 55.59939 37.27745 694 ft 12 kts 84°
2026-05-07 13:52 55.59973 37.27845 694 ft 6 kts 50°
2026-05-07 13:52 55.60003 37.27899 694 ft 6 kts 29°
2026-05-07 13:53 55.60032 37.27922 694 ft 0 kts 24°